Location: Saint-Maurice-d�Ard�che
(44.5216°N, 4.4002°E)
Time: 17:32:42
(UTC+00:00)

ISS - Visible Passes

Search period start: 07 March 2021 00:00
Search period end: 17 March 2021 00:00
Orbit: 417 x 422 km, 51.6° (Epoch: 07 March)

Date Brightness Start Highest point End Pass type
(mag) Time Alt. Az. Time Alt. Az. Time Alt. Az.
07 Mar -1.9 03:58:45 26° NNE 03:58:45 26° NNE 04:01:24 10° ENE visible
07 Mar -3.6 05:32:21 10° WNW 05:35:43 75° NNE 05:39:04 10° ESE visible
08 Mar -0.4 03:13:11 13° NE 03:13:11 13° NE 03:13:40 10° ENE visible
08 Mar -3.1 04:46:09 20° NW 04:48:11 51° NNE 04:51:28 10° ESE visible
09 Mar -2.5 04:00:40 37° NNE 04:00:40 37° NNE 04:03:46 10° E visible
09 Mar -3.2 05:34:15 10° WNW 05:37:28 43° SW 05:40:40 10° SE visible
10 Mar -0.6 03:15:16 15° ENE 03:15:16 15° ENE 03:16:01 10° E visible
10 Mar -3.8 04:48:16 25° WNW 04:50:02 71° SSW 04:53:22 10° SE visible
11 Mar -3.3 04:02:59 62° E 04:02:59 62° E 04:05:54 10° ESE visible
12 Mar -0.7 03:17:51 13° E 03:17:51 13° E 03:18:17 10° ESE visible
12 Mar -2.6 04:50:51 24° WSW 04:51:39 26° SW 04:54:32 10° SSE visible
13 Mar -2.0 04:05:55 23° SSE 04:05:55 23° SSE 04:07:27 10° SE visible
